Location: Bruggewijk
(51.0990°N, 3.4974°E)
Time: 11:51:10
(UTC+00:00)

Daily predictions for brighter satellites

Satellite Brightness Start Highest point End
(mag) Time Altitude Azimuth Time Altitude Azimuth Time Altitude Azimuth
ACS3 Solar Sail 2.9 18:26:41 10° ESE 18:31:57 28° ENE 18:37:13 10° N
Cosmos 2322 3.8 18:27:02 10° S 18:32:31 55° ESE 18:38:02 10° NE
Cosmos 1066 Rocket 4.3 18:27:01 10° N 18:32:55 71° ENE 18:38:43 10° SSE
Cosmos 2233 Rocket 4.0 18:27:51 10° S 18:33:58 76° E 18:40:09 10° NNE
Cosmos 1726 1.3 18:33:46 10° S 18:36:30 63° E 18:39:17 10° NNE
Resurs 1-3 3.6 18:33:01 10° SSE 18:37:20 73° ENE 18:41:41 10° N
SAR-Lupe-2 3.6 18:41:43 10° SSE 18:45:17 84° WSW 18:48:54 10° NNW
Cosmos 1315 Rocket 4.2 18:42:59 10° NNE 18:46:04 21° ENE 18:49:09 10° ESE
Cosmos 1125 Rocket 3.9 18:45:00 10° NNW 18:49:59 45° ENE 18:54:58 10° SE
Meteor PRIRODA 3.3 18:46:46 10° SSE 18:50:03 78° ENE 18:53:21 10° N
ATLAS 2AS CENTAUR R/B 4.1 18:43:37 10° W 18:50:18 39° NNW 18:56:44 10° NE
Cosmos 1842 3.1 18:47:52 10° N 18:51:27 55° ENE 18:55:00 10° SSE
USA 59 Rocket 0.5 18:49:28 10° NW 18:53:10 61° SW 18:58:13 10° SSE
Cosmos 1536 3.6 18:51:28 10° SSE 18:54:46 28° E 18:58:06 10° NNE
Okean 3 Rocket 4.2 18:51:11 10° SSE 18:55:14 35° E 18:59:16 10° NNE
Cosmos 1707 2.7 18:51:47 10° N 18:55:16 50° ENE 18:58:43 10° SSE
Cosmos 1515 Rocket 4.0 18:51:20 10° N 18:55:28 42° ENE 18:59:36 10° SE
Cosmos 2061 Rocket 4.4 18:49:39 10° SSW 18:56:05 75° WNW 19:02:33 10° N
COSMOS 2428 2.7 18:50:38 10° SSW 18:56:17 67° ESE 19:02:00 10° NE
Cosmos 1818 3.8 18:55:56 10° SW 19:01:24 79° NW 19:06:56 10° NE
Okean O Rocket 2.4 18:57:45 10° SE 19:01:44 34° ENE 19:05:44 10° N
Cosmos 2278 Rocket 2.2 19:00:19 10° NNW 19:06:02 88° ENE 19:11:43 10° SSE
USA 306 2.2 19:04:55 10° WSW 19:08:02 75° SSE 19:11:32 11° ENE
Meteor 1-13 Rocket 4.5 19:02:54 10° N 19:08:41 53° ENE 19:14:18 10° SSE
CZ-4B DEB 4.4 19:04:06 10° SSE 19:09:37 80° WSW 19:15:09 10° NNW
CZ-4 R/B 1.3 19:06:46 10° SSE 19:10:36 86° WSW 19:14:31 10° NNW
CZ-4B R/B 3.2 19:08:41 10° SSE 19:14:06 70° ENE 19:19:27 10° NNW
Cosmos 1766 Rocket 3.6 19:10:28 10° S 19:14:49 87° W 19:19:16 10° N
Meteor 2-17 Rocket 4.4 19:09:17 10° N 19:15:22 84° E 19:21:27 10° SSE
Helios 1A 2.8 19:11:58 10° NNE 19:16:04 82° ESE 19:20:07 10° SSW
Resurs 01 Rocket 1.6 19:11:44 10° SSE 19:16:09 75° ENE 19:20:35 10° N
USA 290 2.9 19:13:13 10° NNW 19:16:28 55° WSW 19:19:42 10° S
Meteor 2-10 4.5 19:12:43 10° SSE 19:18:03 46° E 19:23:30 10° NNE
ADEOS 4.3 19:13:45 10° S 19:18:51 55° W 19:24:00 10° NNW
GEOS 3 Rocket 3.9 19:14:02 10° SSE 19:19:14 65° SW 19:24:24 10° NW
USA 186 1.7 19:18:12 10° SSE 19:21:26 90° W 19:24:41 10° NNW
CZ-4B R/B 4.3 19:17:06 10° S 19:21:42 49° W 19:26:24 10° NNW
KORONAS-FOTON 4.2 19:18:39 10° NNW 19:22:20 60° W 19:25:57 10° S
Cosmos 1814 Rocket 4.0 19:17:19 10° SSW 19:22:37 87° WNW 19:27:54 10° NNE
PAYLOAD B 4.4 19:17:09 10° SSE 19:22:45 80° WSW 19:28:24 10° NNW
Cosmos 2360 Rocket 4.2 19:18:03 10° WSW 19:22:57 29° NW 19:27:52 10° NNE
Cosmos 1743 4.5 19:20:11 10° SW 19:23:27 33° WNW 19:26:43 10° N
MOS 1-B 4.4 19:18:15 10° SSE 19:23:59 68° ENE 19:29:45 10° NNW
SPOT 5 3.5 19:22:15 19° ESE 19:24:45 32° ENE 19:28:43 10° N
Okean-O 3.4 19:23:04 19° ESE 19:25:31 34° ENE 19:29:30 10° N
USA 267 3.8 19:21:12 10° ENE 19:27:31 54° N 19:33:51 10° WNW
Cosmos 1408 Rocket 3.9 19:24:47 10° SSE 19:28:55 44° E 19:33:08 10° NNE
ISS -3.0 19:26:46 10° SW 19:29:50 34° SSE 19:30:43 28° ESE
NOSS 3-3 (A) 4.3 19:25:44 10° S 19:30:30 33° ESE 19:35:57 10° NE
CZ-4B R/B 3.5 19:26:55 10° S 19:30:42 55° W 19:34:43 10° NNW
Kosmos-1783 3.6 19:30:39 10° WSW 19:32:31 32° NW 19:33:12 22° N
SL-08 R/B 4.0 19:27:43 10° N 19:32:35 61° WNW 19:37:25 10° SSW
Cosmos 2237 Rocket 2.2 19:29:50 10° S 19:35:18 57° ESE 19:40:49 10° NE
CSL-04 Rocket 3.6 19:32:32 10° SSE 19:37:54 87° WSW 19:43:15 10° NNW
Aureole 3 Rocket 4.0 19:31:45 10° SSE 19:38:01 44° E 19:42:37 10° NNE
Cosmos 2219 Rocket 3.8 19:34:59 10° WSW 19:40:12 36° NW 19:45:27 10° NNE
Cosmos 1356 Rocket 4.2 19:38:14 10° NNW 19:42:18 52° W 19:46:21 10° S
Lacrosse 4 Rocket 4.3 19:41:58 10° WNW 19:44:02 13° WSW 19:46:04 10° SW
Meteor 1-14 Rocket 4.5 19:38:33 10° SSW 19:44:03 70° WNW 19:49:38 10° N
Cosmos 2297 4.5 19:39:09 10° NNW 19:44:23 37° NE 19:47:04 24° E
IKONOS-2 4.4 19:41:46 10° NNE 19:45:52 57° ESE 19:49:56 10° S
Meteor 1-11 Rocket 3.6 19:41:27 10° S 19:47:02 71° E 19:52:34 10° NNE
MOS 1 Rocket 4.0 19:45:38 26° ESE 19:48:02 44° ENE 19:53:03 10° N
CARTOSAT-1 4.3 19:47:06 10° S 19:51:14 51° W 19:55:25 10° NNW
ATLAS CENTAUR R/B 1.1 19:48:44 10° SSW 19:52:12 52° SE 19:54:53 17° NE
Cosmos 158 Rocket 3.8 19:47:26 10° S 19:52:14 61° ESE 19:57:03 10° NNE
Spot 2 Rocket 4.5 19:50:58 25° E 19:52:26 29° ENE 19:56:45 10° N
NOSS 3-4 (A) 4.1 19:46:25 10° NW 19:52:49 55° NE 19:57:11 25° ESE
NOSS 3-4 (C) 4.1 19:46:32 10° NW 19:52:55 54° NE 19:57:18 25° ESE
Cosmos 1805 Rocket 3.6 19:52:47 25° SSE 19:55:02 52° E 19:59:16 10° NNE
Cosmos 1428 Rocket 4.4 19:51:20 10° N 19:57:29 81° E 20:02:18 17° SSE
Cosmos 1733 3.4 19:55:56 10° SSW 19:59:21 61° WNW 20:02:46 10° N
USA 276 3.9 19:58:41 10° W 20:00:38 18° SW 20:00:38 18° SW
Cosmos 2369 Rocket 2.9 19:57:37 10° NNW 20:03:03 41° NE 20:05:12 30° E
SL-24 R/B 4.4 20:01:56 31° SSE 20:04:05 60° E 20:08:50 10° N
Cosmos 1980 3.7 19:59:09 10° SSW 20:04:50 87° WNW 20:10:35 10° NNE
Cosmos 1862 Rocket 4.3 20:02:13 10° N 20:06:16 34° ENE 20:06:32 33° E
Meteor 1-21 4.3 20:02:03 10° N 20:07:47 64° ENE 20:10:23 33° SE
Cosmos 1943 Rocket 2.9 20:04:44 10° NW 20:10:01 48° WSW 20:14:05 17° S
Sich 1 2.8 20:07:33 23° S 20:10:12 79° E 20:14:33 10° NNE
Cosmos 1707 Rocket 4.0 20:06:28 10° N 20:10:43 41° ENE 20:11:05 41° E
DELTA 2 DEB (DPAF) 4.0 20:07:26 10° NNE 20:11:31 52° E 20:11:47 51° ESE
NOSS 0 Rocket 4.3 20:07:16 10° SW 20:13:28 66° NW 20:19:43 10° NNE
Cosmos 2298 Rocket 4.1 20:08:36 10° NNW 20:13:55 80° WSW 20:16:26 32° SSE
Terra 2.1 20:13:52 42° ESE 20:14:44 48° ENE 20:19:16 10° N
Cosmos 2195 Rocket 4.4 20:08:50 10° N 20:14:59 86° W 20:19:12 22° S
ACS3 Solar Sail 2.1 20:09:35 12° S 20:15:30 71° W 20:21:55 10° NNW
ERS-1 Rocket 3.1 20:14:03 42° SE 20:15:30 58° ENE 20:20:27 10° N
Cosmos 2150 Rocket 4.0 20:10:27 10° NNW 20:15:37 77° WSW 20:17:56 33° SSE
USA 32 4.0 20:10:56 10° N 20:16:12 83° W 20:19:24 24° S
Cosmos 1570 Rocket 4.1 20:12:14 10° SSW 20:17:32 77° WNW 20:22:49 10° NNE
Cosmos 1975 3.0 20:18:58 51° ENE 20:18:58 51° ENE 20:22:17 10° NNE
Cosmos 1315 Rocket 3.9 20:18:33 10° NNW 20:22:19 42° W 20:24:27 22° SSW
Cosmos 2026 Rocket 3.9 20:16:04 10° N 20:22:21 89° WSW 20:25:51 28° S
Cosmos 1805 3.1 20:21:37 49° SSW 20:22:29 77° W 20:26:10 10° N
Cosmos 1092 Rocket 4.0 20:16:27 10° N 20:22:50 89° E 20:26:28 28° S
Ariane Rocket 3.4 20:24:21 42° E 20:25:04 44° ENE 20:29:53 10° N
Meteor 2-12 Rocket 4.4 20:19:57 10° N 20:26:09 81° E 20:28:56 35° SSE
Cosmos 836 Rocket 4.4 20:22:44 10° SSW 20:28:01 89° ESE 20:33:22 10° NNE
IRS-1A Rocket 4.2 20:26:28 39° SSE 20:28:45 82° ENE 20:34:28 10° NNW
Okean 3 3.7 20:29:03 10° N 20:32:44 52° NE 20:32:44 52° NE
SL-16 R/B 2.2 20:35:16 52° SE 20:35:43 53° ESE 20:41:14 10° NE
Okean O Rocket 3.1 20:35:02 16° SSW 20:37:59 33° W 20:42:00 10° NNW
Cosmos 1634 Rocket 3.9 20:36:32 30° S 20:39:52 79° E 20:46:13 10° NNE
SL-14 R/B 4.0 20:36:20 10° NNW 20:39:59 46° W 20:40:37 41° SW
Cosmos 1656 Rocket 3.6 20:34:19 10° NNW 20:40:01 88° ENE 20:41:19 55° SSE
USA 306 3.1 20:37:24 10° W 20:40:35 53° NNW 20:40:35 53° NNW
ATLAS 2AS CENTAUR R/B 4.3 20:37:00 10° WNW 20:43:02 29° N 20:48:53 10° ENE
Okean 2 4.3 20:41:58 10° N 20:44:49 38° NNE 20:44:49 38° NNE
IRS-1C Rocket 4.1 20:45:02 52° S 20:46:22 81° WSW 20:51:40 10° NNW
Cosmos 773 Rocket 3.9 20:45:39 34° SSW 20:48:03 86° ESE 20:53:23 10° NNE
Okean 1-7 3.8 20:45:25 10° N 20:48:39 39° NE 20:48:39 39° NE
Cosmos 2263 4.2 20:45:28 10° NNW 20:51:11 64° NE 20:51:55 58° E
Resurs 01 Rocket 4.4 20:50:33 10° WSW 20:53:06 15° W 20:55:40 10° NW
Cosmos 2228 Rocket 3.2 20:50:32 10° NNW 20:55:07 73° W 20:55:20 71° WSW
SPOT 3 Rocket 3.4 21:00:55 79° ESE 21:01:06 81° ENE 21:06:17 10° NNW
Okean-O 4.1 21:00:31 26° SW 21:01:53 32° W 21:05:52 10° NNW
SPOT 5 4.0 21:01:23 29° SW 21:02:44 35° W 21:06:51 10° NNW
Cosmos 2142 Rocket 4.3 21:02:36 65° SE 21:03:08 68° E 21:09:16 10° NNE
ISS -1.0 21:03:05 10° W 21:03:42 15° W 21:03:42 15° W
NOSS 3-3 (C) 3.9 21:01:05 10° SW 21:06:37 76° NW 21:13:17 10° NE
USA 267 3.3 21:08:22 50° E 21:10:11 74° NNE 21:16:43 10° WNW
Cosmos 1655 Rocket 4.4 21:04:19 10° N 21:10:28 47° ENE 21:10:37 46° ENE
Cosmos 2344 4.5 21:04:53 10° NW 21:12:10 45° NNE 21:17:16 25° E
Cosmos 724 4.1 21:15:31 74° ENE 21:15:31 74° ENE 21:20:54 10° NE
Cosmos 2180 Rocket 4.4 21:17:01 72° SE 21:17:30 76° E 21:23:52 10° NNE
Cosmos 2237 Rocket 3.8 21:14:37 10° WSW 21:19:41 33° NW 21:24:46 10° NNE
NOSS 3-3 (A) 4.2 21:15:22 10° WSW 21:20:54 63° NW 21:27:33 10° NE
Cosmos 2279 Rocket 4.0 21:20:00 55° SSW 21:21:26 79° W 21:27:41 10° N
Cosmos 1607 3.9 21:18:31 10° SW 21:25:01 85° NW 21:31:30 10° NE
Cosmos 2297 4.2 21:23:17 10° NW 21:28:42 49° WSW 21:28:59 48° WSW
ATLAS CENTAUR R/B 3.2 21:26:40 10° W 21:29:49 27° NNW 21:29:51 27° NNW
Spot 2 Rocket 4.1 21:31:06 48° WSW 21:31:10 48° W 21:36:03 10° NNW
Cosmos 1633 Rocket 4.4 21:43:08 39° NNW 21:43:08 39° NNW 21:46:20 10° N
NOSS 3-4 (A) 4.1 21:37:16 10° NW 21:43:53 53° SW 21:44:37 52° SW
NOSS 3-4 (C) 4.1 21:37:23 10° NW 21:44:00 54° SW 21:44:43 52° SW
Cosmos 2369 Rocket 2.9 21:41:44 10° NW 21:46:58 44° WSW 21:46:58 44° WSW
Terra 3.5 21:52:34 25° W 21:52:34 25° W 21:56:27 10° NW
ACS3 Solar Sail 4.3 21:57:24 10° WSW 22:00:42 14° W 22:04:01 10° NW
Ariane Rocket 4.4 22:04:29 30° W 22:04:29 30° W 22:08:38 10° NNW
Cosmos 1980 Rocket 4.4 22:05:09 10° N 22:08:32 16° NNE 22:10:30 14° NE
Cosmos 2266 Rocket 4.5 22:03:31 10° NNW 22:09:35 53° W 22:09:40 53° W
SL-16 R/B 3.6 22:17:01 21° W 22:20:04 35° NW 22:25:17 10° NNE
ATLAS 2AS CENTAUR R/B 3.4 22:29:00 10° NW 22:35:37 45° NNE 22:36:31 43° NE
Cosmos 1943 4.2 22:41:44 43° N 22:41:44 43° N 22:45:43 10° NNE
USA 267 4.2 22:55:43 37° W 22:55:43 37° W 22:59:47 10° WNW
Cosmos 1697 Rocket 4.0 22:48:14 10° NNW 22:52:29 36° NNE 22:52:29 36° NNE
Cosmos 2344 3.9 23:19:12 10° NW 23:27:14 77° WSW 23:27:14 77° WSW
Cosmos 1980 Rocket 3.4 23:48:29 10° NNW 23:52:14 37° N 23:52:14 37° N
